Wind_Speed
16 16 16 16 15 15 15 14 13 12 13 14 13 13 13 11 9 6 4 2 1 4 5 6 6 5 5 6 8 8 10 5 5 3 3 8 4 22 12 12 15 9 10 15 14
18 17 17 17 17 17 16 16 15 14 13 13 13 14 14 13 11 9 6 4 1 2 3 4 5 5 5 6 7 6 5 5 4 3 3 8 10 11 11 18 14 8 9 13 14
19 18 17 17 16 17 17 17 16 15 14 13 12 12 13 14 11 11 8 6 3 1 1 2 3 3 4 6 8 7 11 1 3 4 3 4 10 10 14 12 34 15 12 15 15
20 20 20 18 17 17 17 18 17 16 16 15 13 11 11 12 13 13 10 7 4 2 0 1 1 2 2 3 3 2 4 2 4 5 6 7 14 7 15 15 17 19 18 16 16
21 21 21 21 20 19 18 17 17 17 16 15 14 13 13 13 13 12 11 9 7 5 3 2 3 3 2 1 2 3 3 6 7 8 9 10 8 15 17 17 13 15 17 16 16
22 21 21 21 22 22 21 20 18 18 18 17 15 15 15 15 14 13 12 11 10 8 7 7 6 6 6 4 5 6 6 8 9 7 8 11 5 12 15 16 11 13 16 16 18
24 24 24 22 22 22 23 22 21 20 19 19 18 17 16 15 15 15 15 15 13 11 10 9 10 9 9 8 6 8 8 10 10 8 10 13 15 16 13 8 12 17 20 18 18
25 25 25 24 24 24 21 23 24 22 20 20 21 22 21 19 17 16 17 17 16 15 12 11 12 12 12 13 12 11 11 10 9 11 11 11 21 16 15 15 16 16 18 22 19
23 23 24 25 24 25 25 22 22 25 23 21 22 23 25 24 23 21 21 20 19 17 15 13 12 12 14 16 17 15 8 11 14 10 13 13 8 16 15 13 15 18 19 24 21
28 27 26 24 23 26 25 25 25 23 25 25 25 24 23 22 23 22 22 20 20 18 17 16 14 14 13 15 13 8 14 14 16 17 14 14 12 19 15 13 15 20 24 25 21
32 31 30 30 28 25 25 28 28 27 28 28 26 28 26 23 24 23 21 21 21 20 19 18 18 15 15 16 15 20 18 19 18 18 15 11 16 12 18 14 16 22 27 23 19
34 34 34 33 32 30 28 28 29 29 29 29 30 31 30 28 26 24 25 24 22 22 21 20 19 19 19 19 17 17 17 17 20 21 16 15 13 12 23 11 14 21 24 26 22
36 35 34 33 32 31 31 30 29 30 29 31 30 32 34 33 32 30 27 27 26 25 23 23 23 20 20 18 18 17 17 17 17 21 18 19 16 13 20 10 23 19 22 25 23
37 36 36 35 33 32 31 31 31 29 30 33 34 33 32 32 34 33 31 31 29 27 26 25 22 19 17 17 17 18 19 20 19 18 11 18 13 14 14 17 29 14 17 22 20
40 39 38 37 36 36 33 33 31 27 27 34 31 30 31 31 32 31 30 31 29 27 27 23 22 20 19 19 20 18 26 21 21 19 15 15 11 7 21 21 7 19 18 17 21
32 36 39 40 39 37 36 35 33 29 30 32 28 25 27 29 29 32 30 29 28 28 25 25 22 19 20 22 22 22 25 24 21 17 16 15 10 9 13 20 27 19 17 19 19
28 29 31 32 34 34 34 34 34 34 33 34 31 29 25 29 30 31 30 28 27 26 25 24 27 24 23 23 26 24 25 19 11 12 13 17 15 14 19 24 21 20 16 19 20
31 29 28 26 27 28 29 31 34 35 35 36 31 29 29 29 28 32 33 32 30 29 22 24 26 26 28 23 25 23 21 15 11 11 18 17 12 15 18 22 12 10 13 21 20
36 34 32 30 28 27 28 29 27 30 33 37 31 30 29 34 28 30 30 31 31 32 31 21 24 26 32 22 21 24 20 13 20 17 14 14 12 18 20 10 8 5 12 13 18
39 38 37 33 31 30 30 26 27 31 29 27 30 31 30 31 31 31 29 29 30 31 29 26 28 20 25 23 20 17 15 15 17 15 17 18 12 19 20 15 6 8 8 11 15
40 39 38 38 37 34 30 28 29 28 27 29 29 34 32 27 34 23 25 24 29 28 27 27 27 15 27 19 16 16 15 13 13 13 16 17 17 35 7 13 11 8 12 13 15
44 43 40 39 40 38 34 31 31 29 29 30 31 30 30 34 31 33 23 20 29 25 26 22 23 24 17 14 13 18 15 15 18 17 16 26 19 33 11 14 18 12 17 17 17
47 49 42 43 42 40 38 39 34 32 33 30 31 31 30 29 27 30 34 30 40 27 25 25 26 19 19 17 21 18 19 20 19 17 22 25 20 20 36 21 20 17 20 23 20
47 47 49 48 44 47 45 43 40 36 36 33 33 32 31 30 28 29 31 36 31 28 33 29 23 21 14 15 17 22 17 21 22 19 13 21 31 26 16 13 20 21 19 19 20
44 46 55 50 48 48 49 46 43 40 39 37 37 36 34 30 29 30 31 28 32 32 27 30 28 24 27 17 14 14 17 17 20 18 21 26 29 20 20 8 19 23 17 18 21
43 47 51 51 53 52 52 51 46 43 43 40 38 38 39 37 33 34 32 31 28 28 30 30 28 26 22 23 22 22 22 20 20 20 20 21 24 39 23 15 19 19 19 18 22
33 41 50 50 50 49 49 49 47 46 46 44 41 40 41 40 41 40 38 38 36 32 30 32 30 28 21 20 20 26 24 23 22 22 19 22 20 28 30 21 18 17 18 19 23
Wind_Direction
215 216 215 218 220 223 226 223 221 221 223 226 224 225 230 237 244 242 238 249 15 17 24 45 55 60 57 60 79 103 100 164 111 211 45 296 322 318 338 328 344 334 340 342 337
219 218 218 218 218 223 226 229 230 229 227 231 231 229 231 235 234 234 227 222 279 4 33 61 67 56 55 68 83 64 356 127 233 244 258 306 312 308 334 298 318 335 345 346 332
222 221 218 218 219 223 227 227 228 230 231 231 231 229 228 229 225 223 217 213 228 275 34 84 87 75 66 86 89 77 107 228 282 263 256 267 339 300 304 320 304 7 341 349 341
224 224 222 222 225 226 229 232 230 230 231 231 226 221 215 217 214 214 216 221 227 231 123 58 176 154 99 113 83 90 65 5 2 348 310 294 265 271 296 294 297 319 335 331 343
226 226 223 224 228 229 229 233 235 233 231 229 224 217 211 213 214 217 223 227 228 237 238 234 246 236 237 236 316 323 325 316 329 353 347 299 276 281 278 297 319 314 322 321 340
232 232 229 227 230 233 230 229 230 232 231 229 222 222 220 222 222 225 227 231 237 240 251 247 240 242 243 261 281 292 296 311 329 339 317 333 285 284 279 303 304 314 320 319 347
233 235 236 233 235 237 236 234 230 230 229 227 227 224 224 227 231 232 236 238 243 244 250 259 252 247 243 245 272 275 299 311 333 313 298 325 316 257 328 317 316 309 311 317 339
234 237 240 241 240 241 238 239 236 234 234 234 229 231 232 234 240 238 241 243 244 246 252 253 256 249 246 242 263 275 290 308 291 310 300 319 300 354 330 300 296 306 310 312 329
237 238 240 243 244 246 246 243 240 237 236 236 239 235 237 238 240 244 246 249 249 247 250 244 250 253 251 244 250 266 290 249 264 299 292 308 255 300 314 328 313 303 313 319 326
244 245 247 249 248 247 247 245 244 240 238 238 238 242 237 243 240 241 246 249 249 249 246 240 246 252 256 248 241 271 283 264 270 289 298 307 328 308 307 314 300 311 312 316 324
247 250 251 253 252 249 248 246 244 244 245 243 241 244 241 244 243 248 250 250 249 247 246 244 251 258 253 261 251 238 250 247 260 285 288 302 278 307 287 299 302 305 313 314 319
246 248 251 251 250 248 249 251 249 249 250 250 247 246 244 241 244 246 248 251 252 251 252 255 259 255 259 263 262 261 257 263 272 279 295 302 289 274 281 283 294 295 304 306 307
246 247 248 248 247 246 247 250 252 253 251 253 248 246 245 244 245 244 248 250 251 254 257 259 261 263 265 261 260 259 260 263 263 282 305 306 330 281 250 309 314 304 297 300 308
246 246 246 246 246 246 246 249 254 255 256 255 251 245 244 248 245 246 243 248 252 255 257 260 263 263 258 254 256 262 263 261 271 286 301 268 294 304 289 295 310 307 297 299 308
247 246 246 246 246 247 248 249 251 250 248 249 249 250 246 247 247 244 244 246 250 252 256 261 257 259 260 260 262 264 268 276 280 287 270 259 294 257 287 277 302 302 296 291 297
244 246 246 246 246 247 249 249 247 242 239 245 249 247 248 248 242 238 241 244 247 251 254 254 261 262 262 260 263 263 271 274 276 272 262 279 233 273 261 291 294 302 296 290 296
244 243 244 245 247 246 245 244 243 239 240 246 246 247 246 248 243 238 239 242 248 250 252 254 261 254 259 267 270 273 273 270 269 271 271 239 252 263 278 282 286 297 285 278 299
244 241 242 240 241 243 242 240 239 240 239 242 245 245 244 246 241 237 239 242 243 246 242 257 258 269 261 262 271 275 267 230 237 269 249 247 272 272 261 288 300 282 275 293 305
249 245 242 240 238 239 239 238 239 240 239 244 242 241 238 239 239 243 240 241 242 243 244 244 258 252 267 264 265 281 268 247 229 245 244 300 285 289 275 281 285 270 301 310 313
252 251 247 246 240 235 238 237 235 238 242 240 236 235 225 239 235 242 242 239 238 243 243 240 239 250 262 267 269 251 261 226 227 225 242 263 246 262 280 281 277 280 315 314 314
251 250 247 247 246 238 236 236 236 237 235 233 231 231 225 221 231 232 235 243 240 240 243 236 246 241 262 264 253 248 235 228 214 246 245 255 265 279 150 282 274 266 290 304 312
251 249 244 244 246 244 237 233 231 232 229 231 232 232 227 232 235 225 226 230 250 231 241 240 242 212 245 268 250 226 237 216 219 238 244 240 264 273 228 269 279 262 278 297 315
249 249 245 244 242 243 239 237 232 227 231 227 229 231 230 231 229 229 228 226 241 237 238 236 233 231 225 234 240 234 226 235 238 235 248 277 232 260 269 247 248 259 280 286 300
245 246 245 242 237 237 237 235 234 231 234 229 228 228 229 229 227 227 229 235 243 233 232 234 226 222 210 230 242 261 237 224 230 238 249 264 253 253 243 242 248 254 277 280 294
242 238 241 240 236 236 234 234 233 231 233 234 230 228 232 230 227 226 230 232 239 234 232 232 229 225 200 237 227 230 253 223 237 243 243 258 265 253 260 276 259 254 271 271 284
241 239 239 237 236 238 235 234 232 232 233 234 233 230 230 227 227 228 228 223 234 234 225 223 226 220 221 233 245 242 229 222 234 247 247 254 262 271 331 285 276 271 273 285 289
251 241 235 232 231 230 228 232 232 229 229 229 232 231 231 228 223 222 225 222 219 215 230 225 218 219 230 237 240 256 250 245 243 236 236 261 254 247 271 273 276 272 280 283 288
Height
5884 5886 5887 5889 5891 5893 5894 5896 5897 5898 5900 5901 5902 5903 5903 5905 5905 5907 5908 5909 5909 5908 5908 5908 5908 5908 5908 5908 5909 5909 5909 5916 5912 5914 5914 5914 5914 5906 5904 5901 5899 5896 5894 5892 5890
5881 5883 5885 5887 5889 5891 5892 5894 5895 5897 5898 5899 5900 5901 5902 5903 5904 5905 5907 5907 5908 5908 5908 5908 5908 5908 5908 5909 5910 5910 5912 5897 5914 5911 5913 5913 5909 5908 5905 5902 5900 5898 5893 5891 5889
5879 5881 5883 5885 5887 5888 5890 5892 5893 5895 5896 5897 5898 5899 5900 5901 5903 5904 5905 5906 5907 5908 5908 5908 5908 5909 5909 5910 5911 5910 5912 5914 5913 5911 5910 5911 5912 5908 5906 5904 5863 5877 5891 5890 5888
5876 5878 5880 5882 5885 5886 5888 5889 5891 5893 5894 5896 5897 5898 5898 5899 5902 5902 5904 5905 5906 5907 5907 5907 5908 5909 5910 5910 5912 5913 5913 5913 5913 5911 5909 5910 5910 5909 5906 5903 5899 5896 5891 5891 5888
5873 5875 5877 5879 5882 5884 5885 5887 5888 5890 5892 5894 5895 5896 5897 5899 5900 5901 5902 5904 5905 5906 5906 5907 5908 5908 5909 5910 5911 5911 5911 5912 5911 5911 5909 5907 5906 5906 5902 5899 5898 5896 5894 5892 5889
5869 5872 5874 5876 5879 5881 5883 5884 5886 5887 5890 5891 5892 5895 5896 5898 5898 5899 5901 5902 5903 5904 5905 5906 5906 5907 5908 5910 5910 5910 5910 5910 5910 5909 5909 5907 5904 5904 5900 5899 5898 5897 5894 5892 5889
5865 5868 5870 5873 5875 5877 5879 5881 5883 5885 5887 5888 5890 5892 5893 5896 5896 5897 5899 5900 5901 5902 5903 5904 5905 5906 5907 5907 5908 5908 5909 5908 5907 5909 5908 5906 5899 5882 5897 5897 5897 5896 5894 5891 5889
5861 5863 5866 5868 5871 5873 5875 5877 5879 5881 5883 5885 5887 5888 5890 5892 5893 5895 5896 5897 5898 5900 5901 5902 5903 5903 5904 5905 5906 5907 5907 5906 5911 5908 5906 5906 5896 5891 5897 5896 5895 5894 5893 5890 5887
5857 5859 5861 5864 5866 5868 5870 5873 5875 5877 5879 5881 5883 5884 5887 5889 5890 5892 5893 5894 5895 5897 5899 5900 5900 5901 5902 5903 5904 5905 5907 5906 5910 5906 5905 5904 5905 5900 5897 5895 5893 5892 5891 5889 5886
5852 5854 5857 5859 5862 5864 5866 5868 5871 5873 5875 5877 5879 5881 5883 5885 5887 5888 5890 5891 5892 5893 5895 5897 5897 5898 5899 5900 5903 5909 5908 5909 5906 5904 5903 5901 5902 5900 5895 5893 5892 5890 5888 5886 5883
5845 5847 5850 5853 5856 5859 5861 5863 5867 5869 5870 5872 5875 5875 5878 5881 5882 5884 5886 5887 5889 5890 5892 5893 5895 5896 5897 5898 5899 5901 5903 5904 5901 5901 5900 5898 5898 5898 5893 5891 5891 5888 5885 5884 5882
5838 5841 5843 5846 5849 5853 5855 5857 5860 5862 5864 5866 5868 5871 5873 5876 5878 5880 5882 5883 5885 5886 5888 5890 5891 5892 5893 5894 5896 5897 5897 5898 5898 5896 5898 5895 5895 5896 5889 5887 5889 5887 5884 5881 5880
5830 5833 5836 5838 5842 5845 5848 5851 5853 5856 5858 5859 5862 5864 5867 5870 5872 5875 5877 5878 5880 5882 5884 5885 5887 5889 5890 5891 5891 5892 5893 5894 5894 5892 5893 5891 5890 5888 5877 5880 5883 5883 5881 5878 5877
5822 5825 5828 5831 5836 5838 5841 5844 5846 5849 5851 5852 5853 5857 5860 5863 5865 5868 5871 5873 5875 5878 5879 5881 5883 5884 5885 5886 5888 5888 5888 5889 5891 5892 5891 5890 5892 5886 5884 5883 5879 5878 5878 5877 5875
5813 5816 5820 5823 5827 5830 5835 5836 5839 5843 5845 5842 5846 5850 5853 5857 5859 5861 5865 5867 5870 5872 5875 5878 5878 5880 5881 5882 5883 5885 5882 5886 5886 5886 5886 5889 5890 5891 5882 5880 5878 5877 5875 5874 5872
5805 5807 5811 5815 5818 5822 5825 5828 5831 5836 5837 5837 5839 5844 5846 5849 5852 5855 5858 5861 5865 5867 5870 5871 5873 5876 5876 5877 5877 5879 5879 5880 5881 5881 5883 5884 5887 5888 5884 5874 5873 5874 5872 5870 5868
5797 5800 5803 5806 5810 5812 5816 5820 5824 5826 5829 5832 5835 5837 5841 5842 5844 5849 5852 5856 5859 5862 5865 5866 5867 5870 5871 5872 5871 5874 5874 5876 5878 5879 5880 5878 5882 5883 5879 5874 5871 5869 5868 5866 5864
5790 5793 5796 5799 5802 5804 5807 5811 5814 5818 5821 5823 5828 5831 5835 5837 5839 5841 5845 5848 5853 5856 5860 5860 5862 5863 5864 5867 5867 5867 5869 5874 5878 5879 5877 5873 5876 5875 5871 5868 5867 5865 5865 5862 5860
5781 5785 5788 5792 5794 5796 5800 5802 5807 5811 5813 5814 5821 5824 5828 5829 5833 5834 5839 5843 5847 5850 5854 5858 5858 5858 5856 5861 5863 5861 5862 5867 5870 5873 5874 5871 5876 5868 5866 5865 5863 5863 5862 5861 5858
5770 5775 5778 5783 5786 5789 5792 5796 5799 5800 5804 5809 5812 5817 5822 5823 5826 5829 5832 5836 5839 5842 5846 5851 5852 5853 5853 5855 5857 5859 5860 5861 5864 5868 5870 5870 5869 5868 5862 5860 5860 5860 5860 5859 5857
5760 5763 5769 5773 5776 5780 5785 5789 5791 5793 5798 5801 5804 5807 5813 5817 5819 5825 5828 5831 5832 5836 5839 5843 5846 5854 5845 5850 5851 5854 5855 5856 5864 5867 5867 5867 5866 5858 5845 5857 5856 5857 5857 5857 5856
5747 5751 5759 5762 5767 5771 5777 5781 5783 5787 5791 5794 5797 5801 5805 5807 5813 5818 5823 5828 5824 5831 5833 5837 5840 5844 5846 5845 5846 5850 5851 5853 5858 5861 5863 5859 5860 5852 5850 5855 5854 5855 5854 5854 5853
5733 5735 5748 5750 5756 5761 5767 5770 5775 5779 5783 5788 5791 5794 5798 5802 5807 5810 5815 5816 5815 5825 5828 5831 5833 5838 5842 5848 5844 5844 5848 5849 5851 5854 5855 5853 5845 5847 5846 5848 5850 5852 5851 5851 5850
5721 5724 5729 5735 5744 5746 5754 5760 5766 5771 5774 5780 5784 5788 5791 5795 5799 5803 5807 5809 5812 5818 5819 5824 5828 5832 5842 5842 5843 5840 5842 5847 5849 5851 5852 5847 5843 5841 5829 5837 5842 5846 5848 5848 5847
5705 5708 5711 5724 5730 5736 5741 5748 5755 5761 5766 5770 5775 5780 5785 5789 5792 5796 5799 5804 5804 5809 5815 5817 5821 5826 5831 5834 5834 5840 5838 5841 5845 5846 5848 5845 5841 5842 5813 5833 5839 5840 5844 5843 5842
5691 5695 5700 5707 5713 5722 5728 5736 5745 5751 5756 5762 5767 5771 5775 5781 5786 5788 5792 5796 5799 5802 5806 5810 5814 5819 5825 5830 5832 5832 5834 5836 5840 5843 5843 5843 5838 5818 5808 5834 5836 5836 5839 5839 5837
5678 5682 5687 5693 5701 5709 5716 5723 5732 5738 5744 5750 5756 5761 5764 5772 5775 5778 5779 5783 5788 5793 5798 5803 5808 5812 5819 5825 5828 5827 5828 5830 5833 5836 5839 5837 5836 5828 5827 5832 5833 5832 5832 5834 5831